Abbeville, LA

6:37 AM CST on December 12, 2017 (GMT -0600)
Abbeville

Weather History for KIYA - January, 2013

Change the Weather History Date:

Wednesday, January 23, 2013

  Actual Average (KARA) Record (KARA)
Temperature  
Mean Temperature 57 °F -  
Max Temperature 71 °F 61 °F 80 °F (2002)
Min Temperature 43 °F 42 °F 24 °F (1948)
Degree Days  
Heating Degree Days 8    
Growing Degree Days 7 (Base 50)    
Moisture  
Dew Point 53 °F    
Average Humidity 88    
Maximum Humidity 100    
Minimum Humidity 58    
Precipitation  
Precipitation 0.00 in - - ()
Sea Level Pressure  
Sea Level Pressure 30.33 in    
Wind  
Wind Speed 4 mph (SSE)    
Max Wind Speed 13 mph    
Max Gust Speed 16 mph    
Visibility 7 miles    
Events Fog    
Averages and records for this station are not official NWS values.
T = Trace of Precipitation, MM = Missing Value Source: NWS Daily Summary

Daily Weather History Graph

Daily Weather History Graph

Search for Another Location

Airport or City:

Trip Planner

Search our weather history database for the weather conditions in past years. The results will help you decide how hot, cold, wet, or windy it might be!

Date:

Astronomy

Jan. 23, 2013 Rise Set
Actual Time 7:02 AM CST 5:38 PM CST
Civil Twilight 6:37 AM CST 6:03 PM CST
Nautical Twilight 6:08 AM CST 6:32 PM CST
Astronomical Twilight 5:39 AM CST 7:01 PM CST
Moon 2:52 PM CST (1/23) 4:11 AM CST (1/23)
Length of Visible Light 11h 26m
Length of Day
10h 35m
Waxing Gibbous, 89% of the Moon is Illuminated
Jan 23
Waxing Gibbous
Jan 26
Full
Feb 3
Last Quarter
Feb 10
New
Feb 17
First Quarter

Hourly Weather History & Observations

Time (CST) Temp. Dew Point Humidity Pressure Visibility Wind Dir Wind Speed Gust Speed Precip Events Conditions
12:15 AM 51.3 °F 51.3 °F 100% 30.33 in 5.0 mi SSE 4.6 mph - N/A   Clear
12:35 AM 51.3 °F 51.3 °F 100% 30.33 in 7.0 mi SE 4.6 mph - N/A   Clear
12:55 AM 51.8 °F 51.8 °F 100% 30.33 in 10.0 mi SSE 4.6 mph - N/A   Clear
1:15 AM 51.6 °F 51.6 °F 100% 30.33 in 10.0 mi SE 3.5 mph - N/A   Clear
1:35 AM 50.9 °F 50.9 °F 100% 30.33 in 7.0 mi Calm Calm - N/A   Clear
1:55 AM 49.5 °F 49.5 °F 100% 30.33 in 0.8 mi Calm Calm - N/A   Mist
2:15 AM 50.4 °F 50.4 °F 100% 30.33 in 0.8 mi Calm Calm - N/A   Mist
2:55 AM 45.7 °F 45.7 °F 100% 30.33 in 0.2 mi Calm Calm - N/A Fog Fog
3:15 AM 45.0 °F 45.0 °F 100% 30.33 in 0.2 mi Calm Calm - N/A Fog Fog
3:55 AM 43.7 °F 43.7 °F 100% 30.33 in 0.8 mi Calm Calm - N/A   Mostly Cloudy
4:15 AM 44.4 °F 44.4 °F 100% 30.33 in 0.8 mi Calm Calm - N/A   Overcast
4:35 AM 44.1 °F 44.1 °F 100% 30.33 in 0.5 mi Calm Calm - N/A Fog Fog
4:55 AM 43.7 °F 43.7 °F 100% 30.33 in 0.5 mi Calm Calm - N/A Fog Fog
5:15 AM 44.1 °F 44.1 °F 100% 30.34 in 0.8 mi Calm Calm - N/A   Overcast
5:35 AM 43.0 °F 43.0 °F 100% 30.34 in 0.5 mi Calm Calm - N/A Fog Fog
5:55 AM 43.0 °F 43.0 °F 100% 30.34 in 0.2 mi Calm Calm - N/A Fog Fog
6:15 AM 43.7 °F 43.7 °F 100% 30.34 in 0.2 mi North - - N/A Fog Fog
6:35 AM 43.0 °F 43.0 °F 100% 30.35 in 0.2 mi Calm Calm - N/A Fog Fog
6:55 AM 43.7 °F 43.7 °F 100% 30.35 in 0.2 mi North - - N/A Fog Fog
7:15 AM 44.1 °F 44.1 °F 100% 30.36 in 0.2 mi Calm Calm - N/A Fog Fog
7:55 AM 46.0 °F 46.0 °F 100% 30.37 in 0.2 mi Calm Calm - N/A Fog Fog
8:15 AM 48.0 °F 48.0 °F 100% 30.37 in 0.2 mi Calm Calm - N/A Fog Fog
8:35 AM 51.1 °F 51.1 °F 100% 30.38 in 0.2 mi Calm Calm - N/A Fog Fog
8:55 AM 55.4 °F 55.4 °F 100% 30.38 in 10.0 mi SSE 3.5 mph - N/A   Scattered Clouds
9:35 AM 57.6 °F 57.6 °F 100% 30.39 in 10.0 mi SSE 6.9 mph - N/A   Clear
9:55 AM 59.7 °F 59.7 °F 100% 30.39 in 10.0 mi South 6.9 mph - N/A   Clear
10:15 AM 61.0 °F 61.0 °F 100% 30.39 in 10.0 mi South 8.1 mph - N/A   Clear
10:35 AM 66.2 °F 57.6 °F 74% 30.39 in 10.0 mi South 6.9 mph - N/A   Clear
10:55 AM 67.3 °F 55.2 °F 65% 30.39 in 10.0 mi South 9.2 mph - N/A   Clear
11:15 AM 69.3 °F 56.1 °F 63% 30.38 in 10.0 mi South 8.1 mph - N/A   Clear
11:55 AM 70.5 °F 55.9 °F 60% 30.36 in 10.0 mi South 9.2 mph - N/A   Clear
12:15 PM 70.9 °F 55.9 °F 59% 30.35 in 10.0 mi South 8.1 mph - N/A   Clear
12:35 PM 71.2 °F 55.9 °F 58% 30.34 in 10.0 mi SSE 11.5 mph - N/A   Clear
12:55 PM 71.2 °F 55.8 °F 58% 30.34 in 10.0 mi SSE 10.4 mph - N/A   Clear
1:15 PM 71.6 °F 55.9 °F 58% 30.33 in 10.0 mi SSE 11.5 mph - N/A   Clear
1:55 PM 71.4 °F 55.9 °F 58% 30.32 in 10.0 mi SSE 10.4 mph - N/A   Clear
2:15 PM 71.1 °F 55.8 °F 58% 30.32 in 10.0 mi SSE 9.2 mph - N/A   Clear
2:35 PM 71.2 °F 55.8 °F 58% 30.32 in 10.0 mi South 8.1 mph - N/A   Clear
2:55 PM 71.1 °F 55.8 °F 58% 30.31 in 10.0 mi SSE 12.7 mph - N/A   Clear
3:15 PM 70.9 °F 56.3 °F 60% 30.30 in 10.0 mi SSE 11.5 mph - N/A   Clear
3:55 PM 70.0 °F 56.1 °F 61% 30.31 in 10.0 mi South 11.5 mph 16.1 mph N/A   Clear
4:15 PM 69.3 °F 55.9 °F 62% 30.31 in 10.0 mi South 11.5 mph - N/A   Clear
4:35 PM 68.4 °F 56.5 °F 66% 30.31 in 10.0 mi SSE 10.4 mph - N/A   Clear
4:55 PM 67.1 °F 55.9 °F 67% 30.31 in 10.0 mi South 8.1 mph - N/A   Clear
5:15 PM 65.5 °F 56.5 °F 73% 30.31 in 10.0 mi South 6.9 mph - N/A   Clear
5:55 PM 61.2 °F 56.8 °F 86% 30.31 in 10.0 mi South 5.8 mph - N/A   Clear
6:15 PM 60.8 °F 57.4 °F 88% 30.31 in 10.0 mi South 4.6 mph - N/A   Clear
6:35 PM 60.8 °F 58.1 °F 91% 30.31 in 10.0 mi SSE 4.6 mph - N/A   Clear
6:55 PM 58.6 °F 56.8 °F 94% 30.30 in 10.0 mi SSE 5.8 mph - N/A   Clear
7:15 PM 57.6 °F 57.0 °F 98% 30.30 in 10.0 mi SSE 5.8 mph - N/A   Clear
7:35 PM 57.4 °F 57.0 °F 99% 30.30 in 10.0 mi SSE 5.8 mph - N/A   Clear
7:55 PM 56.7 °F 56.3 °F 99% 30.30 in 10.0 mi SSE 5.8 mph - N/A   Clear
8:35 PM 55.8 °F 55.8 °F 100% 30.30 in 10.0 mi SSE 5.8 mph - N/A   Clear
8:55 PM 56.5 °F 56.5 °F 100% 30.30 in 10.0 mi SSE 5.8 mph - N/A   Clear
9:15 PM 57.4 °F 57.4 °F 100% 30.30 in 10.0 mi SSE 5.8 mph - N/A   Clear
9:35 PM 57.6 °F 57.6 °F 100% 30.29 in 10.0 mi South 5.8 mph - N/A   Clear
9:55 PM 57.2 °F 57.2 °F 100% 30.30 in 10.0 mi South 3.5 mph - N/A   Clear
10:15 PM 58.1 °F 58.1 °F 100% 30.31 in 10.0 mi Calm Calm - N/A   Clear
10:35 PM 57.2 °F 57.2 °F 100% 30.31 in 10.0 mi Calm Calm - N/A   Clear
10:55 PM 57.2 °F 57.2 °F 100% 30.31 in 10.0 mi Calm Calm - N/A   Clear
11:15 PM 54.5 °F 54.5 °F 100% 30.30 in 1.0 mi Calm Calm - N/A   Mist
11:35 PM 53.8 °F 53.8 °F 100% 30.30 in 0.2 mi SSE 3.5 mph - N/A Fog Fog
11:55 PM 54.7 °F 54.7 °F 100% 30.30 in 7.0 mi South 4.6 mph - N/A   Clear